Location: Bailleul
(50.3375°N, 2.8513°E)
Time: 21:14:35
(UTC+00:00)

OPS 8737 - Pass Details

Date: 19 April 2021
Orbit: 355 x 1715 km, 63.3° (Epoch: 16 April)

Event Time Altitude Azimuth Distance (km) Brightness Sun altitude
Rises 19:50:23 0° 315° (NW) 2,229 9.8 -9.6°
Reaches altitude 10° 19:52:13 10° 313° (NW) 1,431 8.5 -9.8°
Maximum altitude 19:55:16 75° 229° (SW) 465 4.5 -10.2°
Enters shadow 19:58:31 14° 144° (SE) 1,541 6.5 -10.7°
